SV1BIX Weather Reports


time (UTC)temp
C
wind
direction
speed
KPH
gust
KPH
rain 1hr
cm
rain 24hr
cm
rain mn
cm
humidity
%
barometer
mb
20260508053052 19 197 4.8 11.3 0.00 0.00 0.00 39 1018.4
20260508051552 19 197 0.0 1.6 0.00 0.00 0.00 42 1018.1
20260508050041 18 197 0.0 1.6 0.00 0.00 0.00 42 1017.9
20260508044551 18 197 0.0 4.8 0.00 0.00 0.00 44 1018.1
20260508043037 -17 0.0 0.0 0.00 0.00 0.00 1017.9
20260508041539 -17 0.0 0.0 0.00 0.00 0.00 1017.4
20260508040026 -17 0.0 0.0 0.00 0.00 0.00 1017.0
20260508034523 -17 0.0 0.0 0.00 0.00 0.00 1016.8
20260508033025 -17 0.0 0.0 0.00 0.00 0.00 1016.8
20260508031514 -17 0.0 0.0 0.00 0.00 0.00 1016.9
20260508030010 -17 0.0 0.0 0.00 0.00 0.00 1016.9
20260508024547 -17 0.0 0.0 0.00 0.00 0.00 1016.8
20260508023047 -17 0.0 0.0 0.00 0.00 0.00 1017.1
20260508021533 20 197 3.2 11.3 0.00 0.00 0.00 37 1017.0
20260508020026 20 197 6.4 11.3 0.00 0.00 0.00 37 1017.0
20260508014527 19 197 6.4 14.5 0.00 0.00 0.00 40 1017.1
20260508013023 19 197 6.4 12.9 0.00 0.00 0.00 42 1017.3
20260508011518 19 197 6.4 14.5 0.00 0.00 0.00 42 1017.5
20260508010034 18 197 4.8 11.3 0.00 0.00 0.00 46 1017.5
20260508004522 18 197 0.0 1.6 0.00 0.00 0.00 51 1017.8
20260508003020 18 197 0.0 1.6 0.00 0.00 0.00 51 1017.6
20260508001558 18 197 0.0 1.6 0.00 0.00 0.00 49 1017.8
20260508000055 19 197 0.0 6.4 0.00 0.00 0.00 47 1017.7
20260507234539 18 197 0.0 6.4 0.00 0.00 0.00 47 1018.1
20260507233034 18 197 0.0 1.6 0.00 0.00 0.00 53 1018.4
20260507231522 18 197 0.0 6.4 0.00 0.00 0.00 48 1018.5
20260507230020 18 197 0.0 8.0 0.00 0.00 0.00 57 1018.3
20260507224521 18 197 4.8 11.3 0.00 0.00 0.00 60 1018.6
20260507223016 18 197 0.0 6.4 0.00 0.00 0.00 59 1018.7
20260507221519 18 197 1.6 8.0 0.00 0.00 0.00 56 1018.6
20260507220018 18 197 4.8 14.5 0.00 0.00 0.00 59 1018.7
20260507214510 18 197 4.8 14.5 0.00 0.00 0.00 55 1019.1
20260507213018 18 197 6.4 12.9 0.00 0.00 0.00 53 1019.1
20260507211555 18 197 6.4 19.3 0.00 0.00 0.00 51 1019.0
20260507210116 18 198 11.3 22.5 0.00 0.00 0.00 51 1019.1
20260507204559 19 197 11.3 20.9 0.00 0.00 0.00 44 1019.0
20260507203057 20 196 6.4 16.1 0.00 0.00 0.00 39 1019.2
20260507201551 20 197 11.3 17.7 0.00 0.00 0.00 33 1019.0
20260507194550 20 197 11.3 19.3 0.00 0.00 0.00 35 1019.0
20260507193109 20 197 3.2 9.7 0.00 0.00 0.00 39 1018.8
20260507191536 20 197 3.2 16.1 0.00 0.00 0.00 38 1018.7
20260507190039 20 197 3.2 17.7 0.00 0.00 0.00 34 1018.6
20260507184534 20 197 9.7 17.7 0.00 0.00 0.00 35 1018.7
20260507183039 20 196 6.4 12.9 0.00 0.00 0.00 39 1018.6
20260507181532 20 197 11.3 17.7 0.00 0.00 0.00 39 1018.6
20260507180032 20 197 8.0 17.7 0.00 0.00 0.00 44 1018.7
20260507174532 19 197 8.0 14.5 0.00 0.00 0.00 45 1018.5
20260507173031 20 197 8.0 16.1 0.00 0.00 0.00 46 1018.6
20260507171519 20 197 6.4 12.9 0.00 0.00 0.00 43 1018.7
20260507170019 21 197 3.2 11.3 0.00 0.00 0.00 38 1018.2
20260507164518 21 197 9.7 16.1 0.00 0.00 0.00 39 1018.1
20260507163017 21 197 8.0 17.7 0.00 0.00 0.00 38 1018.2
20260507161520 21 197 8.0 17.7 0.00 0.00 0.00 39 1018.2
20260507160027 21 197 9.7 17.7 0.00 0.00 0.00 40 1018.0
20260507154517 21 197 9.7 19.3 0.00 0.00 0.00 38 1018.2
20260507153020 21 200 14.5 22.5 0.00 0.00 0.00 38 1018.4
20260507151506 21 197 8.0 17.7 0.00 0.00 0.00 41 1018.6
20260507150003 21 197 4.8 17.7 0.00 0.00 0.00 43 1018.5
20260507144502 21 197 11.3 20.9 0.00 0.00 0.00 41 1018.6
20260507143002 21 200 8.0 22.5 0.00 0.00 0.00 42 1018.5
20260507141503 21 198 12.9 22.5 0.00 0.00 0.00 40 1018.6
20260507140111 22 201 14.5 27.4 0.00 0.00 0.00 39 1018.2
20260507134609 22 200 9.7 24.1 0.00 0.00 0.00 37 1018.2
20260507133108 23 201 12.9 20.9 0.00 0.00 0.00 33 1018.0
20260507131546 22 198 11.3 22.5 0.00 0.00 0.00 33 1017.9
20260507130044 22 201 12.9 20.9 0.00 0.00 0.00 37 1018.2
20260507124542 22 197 11.3 24.1 0.00 0.00 0.00 38 1018.5
20260507123045 22 200 9.7 20.9 0.00 0.00 0.00 42 1018.6
20260507121539 22 197 11.3 22.5 0.00 0.00 0.00 44 1018.6
20260507120038 22 195 12.9 22.5 0.00 0.00 0.00 46 1018.6
20260507114537 22 197 11.3 20.9 0.00 0.00 0.00 44 1018.7
20260507113037 22 197 11.3 22.5 0.00 0.00 0.00 51 1018.8
20260507111520 22 200 11.3 20.9 0.00 0.00 0.00 54 1019.0
20260507110021 22 200 9.7 22.5 0.00 0.00 0.00 58 1018.8
20260507104520 22 195 8.0 20.9 0.00 0.00 0.00 53 1018.9
20260507103018 22 197 9.7 19.3 0.00 0.00 0.00 50 1018.5
20260507101518 22 200 11.3 20.9 0.00 0.00 0.00 50 1018.3
20260507100015 22 197 6.4 16.1 0.00 0.00 0.00 53 1018.4
20260507094511 21 198 0.0 12.9 0.00 0.00 0.00 73 1018.5
20260507093011 21 197 6.4 16.1 0.00 0.00 0.00 73 1018.6
20260507091557 21 197 6.4 14.5 0.00 0.00 0.00 67 1018.6
20260507090106 21 197 1.6 11.3 0.00 0.00 0.00 69 1018.4
20260507084553 21 197 3.2 9.7 0.00 0.00 0.00 68 1018.6
20260507083050 21 197 0.0 4.8 0.00 0.00 0.00 68 1018.5
20260507081548 20 198 0.0 1.6 0.00 0.00 0.00 66 1018.5
20260507080047 20 197 3.2 11.3 0.00 0.00 0.00 67 1018.6
20260507074552 20 197 0.0 9.7 0.00 0.00 0.00 65 1018.5
20260507073043 20 198 4.8 11.3 0.00 0.00 0.00 64 1018.2
20260507071530 20 197 3.2 11.3 0.00 0.00 0.00 59 1018.2
20260507070029 20 198 6.4 14.5 0.00 0.00 0.00 59 1018.4
20260507064527 19 198 0.0 12.9 0.00 0.00 0.00 61 1018.4
20260507063029 18 197 8.0 14.5 0.00 0.00 0.00 62 1018.2
20260507061527 18 197 6.4 14.5 0.00 0.00 0.00 61 1018.3
20260507060023 18 198 6.4 12.9 0.00 0.00 0.00 60 1018.2
20260507054520 19 197 4.8 9.7 0.00 0.00 0.00 54 1018.1